Whiteman AFB, MO

11:06 PM CST on November 20, 2017 (GMT -0600)
Whiteman Air Force Base

Weather History for KSZL - March, 2014

Change the Weather History Date:

Thursday, March 6, 2014

  Actual Average Record
Temperature  
Mean Temperature 36 °F -  
Max Temperature 50 °F 46 °F 95 °F (2006)
Min Temperature 23 °F 27 °F 21 °F (2001)
Degree Days  
Heating Degree Days 28    
Moisture  
Dew Point 24 °F    
Average Humidity 63    
Maximum Humidity 87    
Minimum Humidity 36    
Precipitation  
Precipitation 0.00 in - - ()
Sea Level Pressure  
Sea Level Pressure 30.17 in    
Wind  
Wind Speed 6 mph (SE)    
Max Wind Speed 9 mph    
Max Gust Speed -    
Visibility 9 miles    
Events      
Averages and records for this station are not official NWS values.
T = Trace of Precipitation, MM = Missing Value Source: NWS Daily Summary

Daily Weather History Graph

Daily Weather History Graph

Search for Another Location

Airport or City:

Trip Planner

Search our weather history database for the weather conditions in past years. The results will help you decide how hot, cold, wet, or windy it might be!

Date:

Astronomy

Mar. 06, 2014 Rise Set
Actual Time 6:39 AM CST 6:12 PM CST
Civil Twilight 6:12 AM CST 6:38 PM CST
Nautical Twilight 5:41 AM CST 7:09 PM CST
Astronomical Twilight 5:10 AM CST 7:40 PM CST
Moon 9:51 AM CST (3/6) No Moon Set
Length of Visible Light 12h 26m
Length of Day
11h 33m
Waxing Crescent, 32% of the Moon is Illuminated
Mar 6
Waxing Crescent
Mar 8
First Quarter
Mar 16
Full
Mar 23
Last Quarter
Mar 30
New

Hourly Weather History & Observations

Time (CST) Temp. Windchill Dew Point Humidity Pressure Visibility Wind Dir Wind Speed Gust Speed Precip Events Conditions
12:58 AM 32.2 °F 26.7 °F 24.1 °F 72% 30.28 in 10.0 mi NE 5.8 mph - N/A   Overcast
1:58 AM 31.3 °F 26.6 °F 24.1 °F 75% 30.26 in 10.0 mi East 4.6 mph - N/A   Overcast
2:58 AM 30.6 °F 23.8 °F 24.1 °F 77% 30.25 in 10.0 mi ENE 6.9 mph - N/A   Overcast
3:58 AM 27.3 °F 22.0 °F 22.5 °F 82% 30.25 in 10.0 mi ENE 4.6 mph - N/A   Partly Cloudy
4:58 AM 23.4 °F 16.2 °F 19.9 °F 87% 30.27 in 9.0 mi NNE 5.8 mph - N/A   Haze
5:58 AM 24.6 °F 17.7 °F 21.0 °F 86% 30.27 in 9.0 mi NNE 5.8 mph - N/A   Haze
6:58 AM 24.6 °F 17.7 °F 21.0 °F 86% 30.28 in 7.0 mi ENE 5.8 mph - N/A   Haze
7:58 AM 27.5 °F 19.3 °F 23.4 °F 84% 30.28 in 8.0 mi ENE 8.1 mph - N/A   Haze
8:58 AM 30.6 °F 23.8 °F 23.9 °F 76% 30.27 in 6.0 mi East 6.9 mph - N/A   Haze
9:58 AM 33.8 °F 27.7 °F 24.8 °F 70% 30.25 in 10.0 mi ESE 6.9 mph - N/A   Clear
10:09 AM 35.6 °F 30.7 °F 24.8 °F 65% 30.22 in 6.0 mi Variable 5.8 mph - N/A   Haze
10:58 AM 38.7 °F 36.3 °F 25.5 °F 59% 30.24 in 6.0 mi Variable 3.5 mph - N/A   Haze
11:58 AM 41.7 °F 39.8 °F 25.2 °F 52% 30.23 in 6.0 mi Variable 3.5 mph - N/A   Haze
12:58 PM 44.8 °F - 25.2 °F 46% 30.20 in 10.0 mi Variable 1.2 mph - N/A   Partly Cloudy
1:58 PM 47.1 °F - 25.2 °F 42% 30.14 in 10.0 mi South 8.1 mph - N/A   Partly Cloudy
2:58 PM 49.1 °F - 25.2 °F 39% 30.12 in 10.0 mi South 8.1 mph - N/A   Clear
3:58 PM 50.4 °F - 24.8 °F 37% 30.10 in 10.0 mi SSW 6.9 mph - N/A   Clear
4:58 PM 49.6 °F - 23.7 °F 36% 30.09 in 10.0 mi South 9.2 mph - N/A   Clear
5:58 PM 43.0 °F 38.2 °F 24.3 °F 48% 30.07 in 10.0 mi South 8.1 mph - N/A   Clear
6:58 PM 41.9 °F 38.2 °F 24.1 °F 49% 30.05 in 10.0 mi South 5.8 mph - N/A   Clear
7:58 PM 39.6 °F 37.4 °F 24.8 °F 56% 30.04 in 10.0 mi South 3.5 mph - N/A   Clear
8:58 PM 37.0 °F 32.4 °F 24.4 °F 60% 30.04 in 10.0 mi South 5.8 mph - N/A   Clear
9:58 PM 35.4 °F 31.5 °F 24.1 °F 63% 30.04 in 10.0 mi SSE 4.6 mph - N/A   Clear
10:58 PM 35.2 °F 30.3 °F 22.8 °F 61% 30.04 in 10.0 mi South 5.8 mph - N/A   Clear
11:58 PM 33.4 °F 29.1 °F 22.6 °F 65% 30.03 in 10.0 mi South 4.6 mph - N/A   Clear